Year,Month,Day,Hour,Minute,Value (Times are PST for temperature in C)
2008,08,25,00,00,13.30
2008,08,25,00,01,13.30
2008,08,25,00,02,13.30
2008,08,25,00,03,13.20
2008,08,25,00,04,13.20
2008,08,25,00,05,13.20
2008,08,25,00,06,13.20
2008,08,25,00,07,13.10
2008,08,25,00,08,13.10
2008,08,25,00,09,13.10
2008,08,25,00,10,13.00
2008,08,25,00,11,13.00
2008,08,25,00,12,13.00
2008,08,25,00,13,13.00
2008,08,25,00,14,13.00
2008,08,25,00,15,13.10
2008,08,25,00,16,13.10
2008,08,25,00,17,13.10
2008,08,25,00,18,13.10
2008,08,25,00,19,13.10
2008,08,25,00,20,13.10
2008,08,25,00,21,13.10
2008,08,25,00,22,13.10
2008,08,25,00,23,13.10
2008,08,25,00,24,13.10
2008,08,25,00,25,13.10
2008,08,25,00,26,13.10
2008,08,25,00,27,13.10
2008,08,25,00,28,13.10
2008,08,25,00,29,13.00
2008,08,25,00,30,13.10
2008,08,25,00,31,13.10
2008,08,25,00,32,13.10
2008,08,25,00,33,13.10
2008,08,25,00,34,13.10
2008,08,25,00,35,13.10
2008,08,25,00,36,13.10
2008,08,25,00,37,13.10
2008,08,25,00,38,13.10
2008,08,25,00,39,13.10
2008,08,25,00,40,13.10
2008,08,25,00,41,13.10
2008,08,25,00,42,13.10
2008,08,25,00,43,13.00
2008,08,25,00,44,13.00
2008,08,25,00,45,13.00
2008,08,25,00,46,12.90
2008,08,25,00,47,12.90
2008,08,25,00,48,12.80
2008,08,25,00,49,12.80
2008,08,25,00,50,12.80
2008,08,25,00,51,12.80
2008,08,25,00,52,12.80
2008,08,25,00,53,12.80
2008,08,25,00,54,12.80
2008,08,25,00,55,12.80
2008,08,25,00,56,12.80
2008,08,25,00,57,12.80
2008,08,25,00,58,12.80
2008,08,25,00,59,12.90
2008,08,25,01,00,12.90
2008,08,25,01,01,12.90
2008,08,25,01,02,12.80
2008,08,25,01,03,12.80
2008,08,25,01,04,12.70
2008,08,25,01,05,12.70
2008,08,25,01,06,12.70
2008,08,25,01,07,12.60
2008,08,25,01,08,12.60
2008,08,25,01,09,12.50
2008,08,25,01,10,12.50
2008,08,25,01,11,12.50
2008,08,25,01,12,12.40
2008,08,25,01,13,12.40
2008,08,25,01,14,12.40
2008,08,25,01,15,12.40
2008,08,25,01,16,12.30
2008,08,25,01,17,12.30
2008,08,25,01,18,12.30
2008,08,25,01,19,12.20
2008,08,25,01,20,12.20
2008,08,25,01,21,12.20
2008,08,25,01,22,12.10
2008,08,25,01,23,12.10
2008,08,25,01,24,12.00
2008,08,25,01,25,12.00
2008,08,25,01,26,11.90
2008,08,25,01,27,11.80
2008,08,25,01,28,11.80
2008,08,25,01,29,11.70
2008,08,25,01,30,11.70
2008,08,25,01,31,11.70
2008,08,25,01,32,11.60
2008,08,25,01,33,11.60
2008,08,25,01,34,11.60
2008,08,25,01,35,11.50
2008,08,25,01,36,11.50
2008,08,25,01,37,11.50
2008,08,25,01,38,11.50
2008,08,25,01,39,11.50
2008,08,25,01,40,11.60
2008,08,25,01,41,11.50
2008,08,25,01,42,11.50
2008,08,25,01,43,11.40
2008,08,25,01,44,11.40
2008,08,25,01,45,11.30
2008,08,25,01,46,11.30
2008,08,25,01,47,11.30
2008,08,25,01,48,11.30
2008,08,25,01,49,11.30
2008,08,25,01,50,11.30
2008,08,25,01,51,11.20
2008,08,25,01,52,11.20
2008,08,25,01,53,11.20
2008,08,25,01,54,11.20
2008,08,25,01,55,11.20
2008,08,25,01,56,11.20
2008,08,25,01,57,11.20
2008,08,25,01,58,11.20
2008,08,25,01,59,11.30
2008,08,25,02,00,11.30
2008,08,25,02,01,11.30
2008,08,25,02,02,11.30
2008,08,25,02,03,11.30
2008,08,25,02,04,11.30
2008,08,25,02,05,11.30
2008,08,25,02,06,11.30
2008,08,25,02,07,11.30
2008,08,25,02,08,11.30
2008,08,25,02,09,11.20
2008,08,25,02,10,11.20
2008,08,25,02,11,11.20
2008,08,25,02,12,11.20
2008,08,25,02,13,11.20
2008,08,25,02,14,11.10
2008,08,25,02,15,11.10
2008,08,25,02,16,11.10
2008,08,25,02,17,11.10
2008,08,25,02,18,11.10
2008,08,25,02,19,11.10
2008,08,25,02,20,11.10
2008,08,25,02,21,11.10
2008,08,25,02,22,11.10
2008,08,25,02,23,11.10
2008,08,25,02,24,11.20
2008,08,25,02,25,11.20
2008,08,25,02,26,11.20
2008,08,25,02,27,11.20
2008,08,25,02,28,11.30
2008,08,25,02,29,11.30
2008,08,25,02,30,11.30
2008,08,25,02,31,11.30
2008,08,25,02,32,11.30
2008,08,25,02,33,11.30
2008,08,25,02,34,11.30
2008,08,25,02,35,11.30
2008,08,25,02,36,11.30
2008,08,25,02,37,11.40
2008,08,25,02,38,11.40
2008,08,25,02,39,11.40
2008,08,25,02,40,11.30
2008,08,25,02,41,11.30
2008,08,25,02,42,11.30
2008,08,25,02,43,11.30
2008,08,25,02,44,11.30
2008,08,25,02,45,11.30
2008,08,25,02,46,11.30
2008,08,25,02,47,11.30
2008,08,25,02,48,11.30
2008,08,25,02,49,11.30
2008,08,25,02,50,11.30
2008,08,25,02,51,11.30
2008,08,25,02,52,11.30
2008,08,25,02,53,11.30
2008,08,25,02,54,11.30
2008,08,25,02,55,11.30
2008,08,25,02,56,11.30
2008,08,25,02,57,11.30
2008,08,25,02,58,11.30
2008,08,25,02,59,11.30
2008,08,25,03,00,11.30
2008,08,25,03,01,11.30
2008,08,25,03,02,11.30
2008,08,25,03,03,11.30
2008,08,25,03,04,11.30
2008,08,25,03,05,11.30
2008,08,25,03,06,11.30
2008,08,25,03,07,11.30
2008,08,25,03,08,11.20
2008,08,25,03,09,11.20
2008,08,25,03,10,11.20
2008,08,25,03,11,11.20
2008,08,25,03,12,11.20
2008,08,25,03,13,11.20
2008,08,25,03,14,11.20
2008,08,25,03,15,11.10
2008,08,25,03,16,11.10
2008,08,25,03,17,11.10
2008,08,25,03,18,11.00
2008,08,25,03,19,11.00
2008,08,25,03,20,10.90
2008,08,25,03,21,10.90
2008,08,25,03,22,11.00
2008,08,25,03,23,11.00
2008,08,25,03,24,11.00
2008,08,25,03,25,11.00
2008,08,25,03,26,11.00
2008,08,25,03,27,11.00
2008,08,25,03,28,11.00
2008,08,25,03,29,11.00
2008,08,25,03,30,11.00
2008,08,25,03,31,10.90
2008,08,25,03,32,10.90
2008,08,25,03,33,10.90
2008,08,25,03,34,10.80
2008,08,25,03,35,10.80
2008,08,25,03,36,10.80
2008,08,25,03,37,10.80
2008,08,25,03,38,10.70
2008,08,25,03,39,10.70
2008,08,25,03,40,10.70
2008,08,25,03,41,10.70
2008,08,25,03,42,10.70
2008,08,25,03,43,10.70
2008,08,25,03,44,10.70
2008,08,25,03,45,10.70
2008,08,25,03,46,10.70
2008,08,25,03,47,10.70
2008,08,25,03,48,10.70
2008,08,25,03,49,10.70
2008,08,25,03,50,10.70
2008,08,25,03,51,10.60
2008,08,25,03,52,10.60
2008,08,25,03,53,10.60
2008,08,25,03,54,10.60
2008,08,25,03,55,10.60
2008,08,25,03,56,10.60
2008,08,25,03,57,10.60
2008,08,25,03,58,10.60
2008,08,25,03,59,10.50
2008,08,25,04,00,10.50
2008,08,25,04,01,10.50
2008,08,25,04,02,10.50
2008,08,25,04,03,10.50
2008,08,25,04,04,10.40
2008,08,25,04,05,10.40
2008,08,25,04,06,10.40
2008,08,25,04,07,10.40
2008,08,25,04,08,10.40
2008,08,25,04,09,10.40
2008,08,25,04,10,10.40
2008,08,25,04,11,10.40
2008,08,25,04,12,10.30
2008,08,25,04,13,10.30
2008,08,25,04,14,10.30
2008,08,25,04,15,10.30
2008,08,25,04,16,10.30
2008,08,25,04,17,10.30
2008,08,25,04,18,10.30
2008,08,25,04,19,10.30
2008,08,25,04,20,10.30
2008,08,25,04,21,10.30
2008,08,25,04,22,10.30
2008,08,25,04,23,10.30
2008,08,25,04,24,10.30
2008,08,25,04,25,10.30
2008,08,25,04,26,10.30
2008,08,25,04,27,10.30
2008,08,25,04,28,10.30
2008,08,25,04,29,10.30
2008,08,25,04,30,10.30
2008,08,25,04,31,10.30
2008,08,25,04,32,10.30
2008,08,25,04,33,10.30
2008,08,25,04,34,10.30
2008,08,25,04,35,10.30
2008,08,25,04,36,10.30
2008,08,25,04,37,10.30
2008,08,25,04,38,10.30
2008,08,25,04,39,10.30
2008,08,25,04,40,10.30
2008,08,25,04,41,10.30
2008,08,25,04,42,10.30
2008,08,25,04,43,10.30
2008,08,25,04,44,10.30
2008,08,25,04,45,10.30
2008,08,25,04,46,10.30
2008,08,25,04,47,10.30
2008,08,25,04,48,10.30
2008,08,25,04,49,10.30
2008,08,25,04,50,10.30
2008,08,25,04,51,10.30
2008,08,25,04,52,10.30
2008,08,25,04,53,10.30
2008,08,25,04,54,10.30
2008,08,25,04,55,10.30
2008,08,25,04,56,10.30
2008,08,25,04,57,10.30
2008,08,25,04,58,10.30
2008,08,25,04,59,10.30
2008,08,25,05,00,10.30
2008,08,25,05,01,10.30
2008,08,25,05,02,10.30
2008,08,25,05,03,10.30
2008,08,25,05,04,10.30
2008,08,25,05,05,10.30
2008,08,25,05,06,10.30
2008,08,25,05,07,10.30
2008,08,25,05,08,10.30
2008,08,25,05,09,10.30
2008,08,25,05,10,10.30
2008,08,25,05,11,10.20
2008,08,25,05,12,10.20
2008,08,25,05,13,10.20
2008,08,25,05,14,10.20
2008,08,25,05,15,10.20
2008,08,25,05,16,10.20
2008,08,25,05,17,10.20
2008,08,25,05,18,10.10
2008,08,25,05,19,10.10
2008,08,25,05,20,10.10
2008,08,25,05,21,10.10
2008,08,25,05,22,10.10
2008,08,25,05,23,10.10
2008,08,25,05,24,10.10
2008,08,25,05,25,10.10
2008,08,25,05,26,10.00
2008,08,25,05,27,10.00
2008,08,25,05,28,10.10
2008,08,25,05,29,10.00
2008,08,25,05,30,10.00
2008,08,25,05,31,10.00
2008,08,25,05,32,10.00
2008,08,25,05,33,10.00
2008,08,25,05,34,10.00
2008,08,25,05,35,10.00
2008,08,25,05,36,10.00
2008,08,25,05,37,10.00
2008,08,25,05,38,10.00
2008,08,25,05,39,10.10
2008,08,25,05,40,10.10
2008,08,25,05,41,10.10
2008,08,25,05,42,10.10
2008,08,25,05,43,10.10
2008,08,25,05,44,10.10
2008,08,25,05,45,10.10
2008,08,25,05,46,10.10
2008,08,25,05,47,10.10
2008,08,25,05,48,10.10
2008,08,25,05,49,10.10
2008,08,25,05,50,10.10
2008,08,25,05,51,10.10
2008,08,25,05,52,10.10
2008,08,25,05,53,10.10
2008,08,25,05,54,10.10
2008,08,25,05,55,10.10
2008,08,25,05,56,10.10
2008,08,25,05,57,10.10
2008,08,25,05,58,10.10
2008,08,25,05,59,10.10
2008,08,25,06,00,10.00
2008,08,25,06,01,10.00
2008,08,25,06,02,9.90
2008,08,25,06,03,9.90
2008,08,25,06,04,9.90
2008,08,25,06,05,9.90
2008,08,25,06,06,9.90
2008,08,25,06,07,9.80
2008,08,25,06,08,9.80
2008,08,25,06,09,9.80
2008,08,25,06,10,9.80
2008,08,25,06,11,9.80
2008,08,25,06,12,9.80
2008,08,25,06,13,9.80
2008,08,25,06,14,9.80
2008,08,25,06,15,9.80
2008,08,25,06,16,9.80
2008,08,25,06,17,9.80
2008,08,25,06,18,9.70
2008,08,25,06,19,9.80
2008,08,25,06,20,9.70
2008,08,25,06,21,9.70
2008,08,25,06,22,9.70
2008,08,25,06,23,9.70
2008,08,25,06,24,9.70
2008,08,25,06,25,9.70
2008,08,25,06,26,9.70
2008,08,25,06,27,9.70
2008,08,25,06,28,9.70
2008,08,25,06,29,9.70
2008,08,25,06,30,9.70
2008,08,25,06,31,9.70
2008,08,25,06,32,9.70
2008,08,25,06,33,9.70
2008,08,25,06,34,9.70
2008,08,25,06,35,9.70
2008,08,25,06,36,9.70
2008,08,25,06,37,9.70
2008,08,25,06,38,9.70
2008,08,25,06,39,9.70
2008,08,25,06,40,9.70
2008,08,25,06,41,9.70
2008,08,25,06,42,9.70
2008,08,25,06,43,9.70
2008,08,25,06,44,9.60
2008,08,25,06,45,9.60
2008,08,25,06,46,9.60
2008,08,25,06,47,9.60
2008,08,25,06,48,9.60
2008,08,25,06,49,9.60
2008,08,25,06,50,9.60
2008,08,25,06,51,9.60
2008,08,25,06,52,9.60
2008,08,25,06,53,9.70
2008,08,25,06,54,9.70
2008,08,25,06,55,9.70
2008,08,25,06,56,9.70
2008,08,25,06,57,9.70
2008,08,25,06,58,9.80
2008,08,25,06,59,9.80
2008,08,25,07,00,9.80
2008,08,25,07,01,9.80
2008,08,25,07,02,9.80
2008,08,25,07,03,9.80
2008,08,25,07,04,9.80
2008,08,25,07,05,9.80
2008,08,25,07,06,9.80
2008,08,25,07,07,9.80
2008,08,25,07,08,9.80
2008,08,25,07,09,9.90
2008,08,25,07,10,9.90
2008,08,25,07,11,10.00
2008,08,25,07,12,10.00
2008,08,25,07,13,10.00
2008,08,25,07,14,10.10
2008,08,25,07,15,10.10
2008,08,25,07,16,10.10
2008,08,25,07,17,10.10
2008,08,25,07,18,10.10
2008,08,25,07,19,10.10
2008,08,25,07,20,10.10
2008,08,25,07,21,10.10
2008,08,25,07,22,10.10
2008,08,25,07,23,10.20
2008,08,25,07,24,10.20
2008,08,25,07,25,10.20
2008,08,25,07,26,10.30
2008,08,25,07,27,10.30
2008,08,25,07,28,10.40
2008,08,25,07,29,10.40
2008,08,25,07,30,10.40
2008,08,25,07,31,10.40
2008,08,25,07,32,10.40
2008,08,25,07,33,10.40
2008,08,25,07,34,10.40
2008,08,25,07,35,10.40
2008,08,25,07,36,10.50
2008,08,25,07,37,10.50
2008,08,25,07,38,10.50
2008,08,25,07,39,10.60
2008,08,25,07,40,10.60
2008,08,25,07,41,10.60
2008,08,25,07,42,10.70
2008,08,25,07,43,10.70
2008,08,25,07,44,10.70
2008,08,25,07,45,10.70
2008,08,25,07,46,10.80
2008,08,25,07,47,10.80
2008,08,25,07,48,10.80
2008,08,25,07,49,10.90
2008,08,25,07,50,10.90
2008,08,25,07,51,11.00
2008,08,25,07,52,11.10
2008,08,25,07,53,11.10
2008,08,25,07,54,11.20
2008,08,25,07,55,11.30
2008,08,25,07,56,11.30
2008,08,25,07,57,11.30
2008,08,25,07,58,11.40
2008,08,25,07,59,11.40
2008,08,25,08,00,11.40
2008,08,25,08,01,11.50
2008,08,25,08,02,11.60
2008,08,25,08,03,11.60
2008,08,25,08,04,11.60
2008,08,25,08,05,11.70
2008,08,25,08,06,11.70
2008,08,25,08,07,11.80
2008,08,25,08,08,11.90
2008,08,25,08,09,11.90
2008,08,25,08,10,11.90
2008,08,25,08,11,12.00
2008,08,25,08,12,12.00
2008,08,25,08,13,12.00
2008,08,25,08,14,12.00
2008,08,25,08,15,12.00
2008,08,25,08,16,12.00
2008,08,25,08,17,12.10
2008,08,25,08,18,12.10
2008,08,25,08,19,12.10
2008,08,25,08,20,12.10
2008,08,25,08,21,12.10
2008,08,25,08,22,12.10
2008,08,25,08,23,12.00
2008,08,25,08,24,12.00
2008,08,25,08,25,12.00
2008,08,25,08,26,11.90
2008,08,25,08,27,11.90
2008,08,25,08,28,11.90
2008,08,25,08,29,11.90
2008,08,25,08,30,11.90
2008,08,25,08,31,11.90
2008,08,25,08,32,12.00
2008,08,25,08,33,12.00
2008,08,25,08,34,12.10
2008,08,25,08,35,12.10
2008,08,25,08,36,12.20
2008,08,25,08,37,12.20
2008,08,25,08,38,12.30
2008,08,25,08,39,12.40
2008,08,25,08,40,12.50
2008,08,25,08,41,12.60
2008,08,25,08,42,12.60
2008,08,25,08,43,12.70
2008,08,25,08,44,12.70
2008,08,25,08,45,12.80
2008,08,25,08,46,12.80
2008,08,25,08,47,12.90
2008,08,25,08,48,13.00
2008,08,25,08,49,13.00
2008,08,25,08,50,13.10
2008,08,25,08,51,13.10
2008,08,25,08,52,13.20
2008,08,25,08,53,13.30
2008,08,25,08,54,13.30
2008,08,25,08,55,13.40
2008,08,25,08,56,13.50
2008,08,25,08,57,13.50
2008,08,25,08,58,13.60
2008,08,25,08,59,13.70
2008,08,25,09,00,13.70
2008,08,25,09,01,13.80
2008,08,25,09,02,13.90
2008,08,25,09,03,14.00
2008,08,25,09,04,14.10
2008,08,25,09,05,14.20
2008,08,25,09,06,14.30
2008,08,25,09,07,14.40
2008,08,25,09,08,14.50
2008,08,25,09,09,14.60
2008,08,25,09,10,14.70
2008,08,25,09,11,14.80
2008,08,25,09,12,14.90
2008,08,25,09,13,15.00
2008,08,25,09,14,14.90
2008,08,25,09,15,14.80
2008,08,25,09,16,14.70
2008,08,25,09,17,14.50
2008,08,25,09,18,14.40
2008,08,25,09,19,14.30
2008,08,25,09,20,14.30
2008,08,25,09,21,14.30
2008,08,25,09,22,14.30
2008,08,25,09,23,14.30
2008,08,25,09,24,14.30
2008,08,25,09,25,14.30
2008,08,25,09,26,14.30
2008,08,25,09,27,14.40
2008,08,25,09,28,14.40
2008,08,25,09,29,14.40
2008,08,25,09,30,14.40
2008,08,25,09,31,14.50
2008,08,25,09,32,14.50
2008,08,25,09,33,14.70
2008,08,25,09,34,14.70
2008,08,25,09,35,14.80
2008,08,25,09,36,14.90
2008,08,25,09,37,15.00
2008,08,25,09,38,15.00
2008,08,25,09,39,15.00
2008,08,25,09,40,15.00
2008,08,25,09,41,15.00
2008,08,25,09,42,15.00
2008,08,25,09,43,15.00
2008,08,25,09,44,15.00
2008,08,25,09,45,15.00
2008,08,25,09,46,15.00
2008,08,25,09,47,15.00
2008,08,25,09,48,15.00
2008,08,25,09,49,14.90
2008,08,25,09,50,14.70
2008,08,25,09,51,14.60
2008,08,25,09,52,14.50
2008,08,25,09,53,14.50
2008,08,25,09,54,14.50
2008,08,25,09,55,14.40
2008,08,25,09,56,14.40
2008,08,25,09,57,14.40
2008,08,25,09,58,14.40
2008,08,25,09,59,14.50
2008,08,25,10,00,14.50
2008,08,25,10,01,14.50
2008,08,25,10,02,14.60
2008,08,25,10,03,14.60
2008,08,25,10,04,14.70
2008,08,25,10,05,14.80
2008,08,25,10,06,14.90
2008,08,25,10,07,15.00
2008,08,25,10,08,15.00
2008,08,25,10,09,15.00
2008,08,25,10,10,15.00
2008,08,25,10,11,15.10
2008,08,25,10,12,15.10
2008,08,25,10,13,15.20
2008,08,25,10,14,15.20
2008,08,25,10,15,15.20
2008,08,25,10,16,15.30
2008,08,25,10,17,15.40
2008,08,25,10,18,15.40
2008,08,25,10,19,15.50
2008,08,25,10,20,15.60
2008,08,25,10,21,15.60
2008,08,25,10,22,15.60
2008,08,25,10,23,15.70
2008,08,25,10,24,15.70
2008,08,25,10,25,15.70
2008,08,25,10,26,15.70
2008,08,25,10,27,15.80
2008,08,25,10,28,15.80
2008,08,25,10,29,15.80
2008,08,25,10,30,15.80
2008,08,25,10,31,15.80
2008,08,25,10,32,15.80
2008,08,25,10,33,15.80
2008,08,25,10,34,15.80
2008,08,25,10,35,15.80
2008,08,25,10,36,15.70
2008,08,25,10,37,15.70
2008,08,25,10,38,15.70
2008,08,25,10,39,15.70
2008,08,25,10,40,15.70
2008,08,25,10,41,15.60
2008,08,25,10,42,15.60
2008,08,25,10,43,15.60
2008,08,25,10,44,15.60
2008,08,25,10,45,15.60
2008,08,25,10,46,15.60
2008,08,25,10,47,15.70
2008,08,25,10,48,15.70
2008,08,25,10,49,15.70
2008,08,25,10,50,15.70
2008,08,25,10,51,15.70
2008,08,25,10,52,15.80
2008,08,25,10,53,15.80
2008,08,25,10,54,15.90
2008,08,25,10,55,16.00
2008,08,25,10,56,16.10
2008,08,25,10,57,16.10
2008,08,25,10,58,16.10
2008,08,25,10,59,16.10
2008,08,25,11,00,16.10
2008,08,25,11,01,16.10
2008,08,25,11,02,16.10
2008,08,25,11,03,16.10
2008,08,25,11,04,16.20
2008,08,25,11,05,16.20
2008,08,25,11,06,16.20
2008,08,25,11,07,16.20
2008,08,25,11,08,16.20
2008,08,25,11,09,16.20
2008,08,25,11,10,16.20
2008,08,25,11,11,16.20
2008,08,25,11,12,16.30
2008,08,25,11,13,16.30
2008,08,25,11,14,16.30
2008,08,25,11,15,16.30
2008,08,25,11,16,16.40
2008,08,25,11,17,16.40
2008,08,25,11,18,16.40
2008,08,25,11,19,16.40
2008,08,25,11,20,16.40
2008,08,25,11,21,16.40
2008,08,25,11,22,16.50
2008,08,25,11,23,16.50
2008,08,25,11,24,16.50
2008,08,25,11,25,16.50
2008,08,25,11,26,16.60
2008,08,25,11,27,16.70
2008,08,25,11,28,16.80
2008,08,25,11,29,16.80
2008,08,25,11,30,16.70
2008,08,25,11,31,16.70
2008,08,25,11,32,16.70
2008,08,25,11,33,16.70
2008,08,25,11,34,16.60
2008,08,25,11,35,16.60
2008,08,25,11,36,16.60
2008,08,25,11,37,16.60
2008,08,25,11,38,16.60
2008,08,25,11,39,16.60
2008,08,25,11,40,16.70
2008,08,25,11,41,16.70
2008,08,25,11,42,16.80
2008,08,25,11,43,16.90
2008,08,25,11,44,16.80
2008,08,25,11,45,16.80
2008,08,25,11,46,16.70
2008,08,25,11,47,16.70
2008,08,25,11,48,16.70
2008,08,25,11,49,16.60
2008,08,25,11,50,16.50
2008,08,25,11,51,16.50
2008,08,25,11,52,16.50
2008,08,25,11,53,16.50
2008,08,25,11,54,16.40
2008,08,25,11,55,16.40
2008,08,25,11,56,16.30
2008,08,25,11,57,16.30
2008,08,25,11,58,16.30
2008,08,25,11,59,16.20
2008,08,25,12,00,16.20
2008,08,25,12,01,16.20
2008,08,25,12,02,16.10
2008,08,25,12,03,16.10
2008,08,25,12,04,16.20
2008,08,25,12,05,16.20
2008,08,25,12,06,16.30
2008,08,25,12,07,16.40
2008,08,25,12,08,16.40
2008,08,25,12,09,16.50
2008,08,25,12,10,16.50
2008,08,25,12,11,16.50
2008,08,25,12,12,16.40
2008,08,25,12,13,16.40
2008,08,25,12,14,16.40
2008,08,25,12,15,16.40
2008,08,25,12,16,16.40
2008,08,25,12,17,16.40
2008,08,25,12,18,16.40
2008,08,25,12,19,16.50
2008,08,25,12,20,16.50
2008,08,25,12,21,16.50
2008,08,25,12,22,16.60
2008,08,25,12,23,16.60
2008,08,25,12,24,16.70
2008,08,25,12,25,16.80
2008,08,25,12,26,16.90
2008,08,25,12,27,17.10
2008,08,25,12,28,17.20
2008,08,25,12,29,17.30
2008,08,25,12,30,17.40
2008,08,25,12,31,17.40
2008,08,25,12,32,17.40
2008,08,25,12,33,17.40
2008,08,25,12,34,17.40
2008,08,25,12,35,17.40
2008,08,25,12,36,17.50
2008,08,25,12,37,17.60
2008,08,25,12,38,17.60
2008,08,25,12,39,17.50
2008,08,25,12,40,17.40
2008,08,25,12,41,17.30
2008,08,25,12,42,17.20
2008,08,25,12,43,17.20
2008,08,25,12,44,17.20
2008,08,25,12,45,17.20
2008,08,25,12,46,17.20
2008,08,25,12,47,17.30
2008,08,25,12,48,17.30
2008,08,25,12,49,17.40
2008,08,25,12,50,17.40
2008,08,25,12,51,17.40
2008,08,25,12,52,17.40
2008,08,25,12,53,17.40
2008,08,25,12,54,17.40
2008,08,25,12,55,17.40
2008,08,25,12,56,17.40
2008,08,25,12,57,17.50
2008,08,25,12,58,17.50
2008,08,25,12,59,17.60
2008,08,25,13,00,17.60
2008,08,25,13,01,17.70
2008,08,25,13,02,17.70
2008,08,25,13,03,17.60
2008,08,25,13,04,17.60
2008,08,25,13,05,17.50
2008,08,25,13,06,17.40
2008,08,25,13,07,17.40
2008,08,25,13,08,17.40
2008,08,25,13,09,17.40
2008,08,25,13,10,17.30
2008,08,25,13,11,17.40
2008,08,25,13,12,17.30
2008,08,25,13,13,17.40
2008,08,25,13,14,17.50
2008,08,25,13,15,17.50
2008,08,25,13,16,17.50
2008,08,25,13,17,17.40
2008,08,25,13,18,17.40
2008,08,25,13,19,17.50
2008,08,25,13,20,17.50
2008,08,25,13,21,17.60
2008,08,25,13,22,17.80
2008,08,25,13,23,17.80
2008,08,25,13,24,17.80
2008,08,25,13,25,17.80
2008,08,25,13,26,17.70
2008,08,25,13,27,17.70
2008,08,25,13,28,17.70
2008,08,25,13,29,17.70
2008,08,25,13,30,17.80
2008,08,25,13,31,17.90
2008,08,25,13,32,18.00
2008,08,25,13,33,18.00
2008,08,25,13,34,17.90
2008,08,25,13,35,17.90
2008,08,25,13,36,17.90
2008,08,25,13,37,17.90
2008,08,25,13,38,17.90
2008,08,25,13,39,17.90
2008,08,25,13,40,17.80
2008,08,25,13,41,17.80
2008,08,25,13,42,17.70
2008,08,25,13,43,17.60
2008,08,25,13,44,17.70
2008,08,25,13,45,17.70
2008,08,25,13,46,17.70
2008,08,25,13,47,17.60
2008,08,25,13,48,17.60
2008,08,25,13,49,17.60
2008,08,25,13,50,17.60
2008,08,25,13,51,17.70
2008,08,25,13,52,17.90
2008,08,25,13,53,18.00
2008,08,25,13,54,18.20
2008,08,25,13,55,18.20
2008,08,25,13,56,18.20
2008,08,25,13,57,18.20
2008,08,25,13,58,18.20
2008,08,25,13,59,18.30
2008,08,25,14,00,18.30
2008,08,25,14,01,18.30
2008,08,25,14,02,18.20
2008,08,25,14,03,18.20
2008,08,25,14,04,18.20
2008,08,25,14,05,18.20
2008,08,25,14,06,18.20
2008,08,25,14,07,18.10
2008,08,25,14,08,18.10
2008,08,25,14,09,18.20
2008,08,25,14,10,18.20
2008,08,25,14,11,18.20
2008,08,25,14,12,18.30
2008,08,25,14,13,18.30
2008,08,25,14,14,18.30
2008,08,25,14,15,18.30
2008,08,25,14,16,18.20
2008,08,25,14,17,18.20
2008,08,25,14,18,18.10
2008,08,25,14,19,18.00
2008,08,25,14,20,18.00
2008,08,25,14,21,18.10
2008,08,25,14,22,18.10
2008,08,25,14,23,18.00
2008,08,25,14,24,17.90
2008,08,25,14,25,17.90
2008,08,25,14,26,17.80
2008,08,25,14,27,17.80
2008,08,25,14,28,17.80
2008,08,25,14,29,17.80
2008,08,25,14,30,17.90
2008,08,25,14,31,17.90
2008,08,25,14,32,17.90
2008,08,25,14,33,18.00
2008,08,25,14,34,18.10
2008,08,25,14,35,18.10
2008,08,25,14,36,18.00
2008,08,25,14,37,17.90
2008,08,25,14,38,17.90
2008,08,25,14,39,17.90
2008,08,25,14,40,17.90
2008,08,25,14,41,18.00
2008,08,25,14,42,18.10
2008,08,25,14,43,18.10
2008,08,25,14,44,18.20
2008,08,25,14,45,18.30
2008,08,25,14,46,18.20
2008,08,25,14,47,18.10
2008,08,25,14,48,18.00
2008,08,25,14,49,17.80
2008,08,25,14,50,17.70
2008,08,25,14,51,17.70
2008,08,25,14,52,17.60
2008,08,25,14,53,17.50
2008,08,25,14,54,17.50
2008,08,25,14,55,17.40
2008,08,25,14,56,17.40
2008,08,25,14,57,17.40
2008,08,25,14,58,17.30
2008,08,25,14,59,17.30
2008,08,25,15,00,17.30
2008,08,25,15,01,17.20
2008,08,25,15,02,17.10
2008,08,25,15,03,17.10
2008,08,25,15,04,17.10
2008,08,25,15,05,17.10
2008,08,25,15,06,17.10
2008,08,25,15,07,17.10
2008,08,25,15,08,17.10
2008,08,25,15,09,17.20
2008,08,25,15,10,17.20
2008,08,25,15,11,17.20
2008,08,25,15,12,17.20
2008,08,25,15,13,17.20
2008,08,25,15,14,17.20
2008,08,25,15,15,17.30
2008,08,25,15,16,17.30
2008,08,25,15,17,17.30
2008,08,25,15,18,17.40
2008,08,25,15,19,17.40
2008,08,25,15,20,17.40
2008,08,25,15,21,17.40
2008,08,25,15,22,17.40
2008,08,25,15,23,17.40
2008,08,25,15,24,17.50
2008,08,25,15,25,17.50
2008,08,25,15,26,17.50
2008,08,25,15,27,17.50
2008,08,25,15,28,17.60
2008,08,25,15,29,17.60
2008,08,25,15,30,17.60
2008,08,25,15,31,17.60
2008,08,25,15,32,17.70
2008,08,25,15,33,17.70
2008,08,25,15,34,17.70
2008,08,25,15,35,17.70
2008,08,25,15,36,17.70
2008,08,25,15,37,17.70
2008,08,25,15,38,17.60
2008,08,25,15,39,17.60
2008,08,25,15,40,17.50
2008,08,25,15,41,17.50
2008,08,25,15,42,17.50
2008,08,25,15,43,17.50
2008,08,25,15,44,17.60
2008,08,25,15,45,17.60
2008,08,25,15,46,17.70
2008,08,25,15,47,17.70
2008,08,25,15,48,17.70
2008,08,25,15,49,17.80
2008,08,25,15,50,17.80
2008,08,25,15,51,17.90
2008,08,25,15,52,17.90
2008,08,25,15,53,17.90
2008,08,25,15,54,17.90
2008,08,25,15,55,17.90
2008,08,25,15,56,17.70
2008,08,25,15,57,17.60
2008,08,25,15,58,17.50
2008,08,25,15,59,17.40
2008,08,25,16,00,17.30
2008,08,25,16,01,17.30
2008,08,25,16,02,17.30
2008,08,25,16,03,17.30
2008,08,25,16,04,17.30
2008,08,25,16,05,17.30
2008,08,25,16,06,17.20
2008,08,25,16,07,17.30
2008,08,25,16,08,17.30
2008,08,25,16,09,17.30
2008,08,25,16,10,17.30
2008,08,25,16,11,17.30
2008,08,25,16,12,17.30
2008,08,25,16,13,17.30
2008,08,25,16,14,17.30
2008,08,25,16,15,17.30
2008,08,25,16,16,17.30
2008,08,25,16,17,17.20
2008,08,25,16,18,17.10
2008,08,25,16,19,17.00
2008,08,25,16,20,16.90
2008,08,25,16,21,16.90
2008,08,25,16,22,16.80
2008,08,25,16,23,16.80
2008,08,25,16,24,16.80
2008,08,25,16,25,16.80
2008,08,25,16,26,16.80
2008,08,25,16,27,16.80
2008,08,25,16,28,16.80
2008,08,25,16,29,16.70
2008,08,25,16,30,16.70
2008,08,25,16,31,16.70
2008,08,25,16,32,16.70
2008,08,25,16,33,16.70
2008,08,25,16,34,16.70
2008,08,25,16,35,16.70
2008,08,25,16,36,16.80
2008,08,25,16,37,16.70
2008,08,25,16,38,16.70
2008,08,25,16,39,16.70
2008,08,25,16,40,16.70
2008,08,25,16,41,16.70
2008,08,25,16,42,16.70
2008,08,25,16,43,16.60
2008,08,25,16,44,16.70
2008,08,25,16,45,16.60
2008,08,25,16,46,16.60
2008,08,25,16,47,16.60
2008,08,25,16,48,16.60
2008,08,25,16,49,16.70
2008,08,25,16,50,16.70
2008,08,25,16,51,16.80
2008,08,25,16,52,16.80
2008,08,25,16,53,16.90
2008,08,25,16,54,17.00
2008,08,25,16,55,17.00
2008,08,25,16,56,17.10
2008,08,25,16,57,17.10
2008,08,25,16,58,17.20
2008,08,25,16,59,17.20
2008,08,25,17,00,17.30
2008,08,25,17,01,17.30
2008,08,25,17,02,17.20
2008,08,25,17,03,17.10
2008,08,25,17,04,17.00
2008,08,25,17,05,16.80
2008,08,25,17,06,16.60
2008,08,25,17,07,16.50
2008,08,25,17,08,16.30
2008,08,25,17,09,16.30
2008,08,25,17,10,16.20
2008,08,25,17,11,16.10
2008,08,25,17,12,16.00
2008,08,25,17,13,15.90
2008,08,25,17,14,15.90
2008,08,25,17,15,15.90
2008,08,25,17,16,15.90
2008,08,25,17,17,15.80
2008,08,25,17,18,15.80
2008,08,25,17,19,15.80
2008,08,25,17,20,15.80
2008,08,25,17,21,15.70
2008,08,25,17,22,15.60